Miscellaneous Local Product
Issued by NWS Hastings, NE

Home | Current Version | Previous Version | Graphics & Text | Print | Product List | Glossary On
Versions: 1 2 3 4 5 6 7 8 9 10 11 12 13 14 15 16 17 18 19 20 21 22 23 24 25 26 27 28 29 30 31 32 33 34 35 36 37 38 39 40 41 42 43 44 45 46 47 48 49 50
000
AXUS43 KGID 311102
MISGRI

GID CWA HOURLY WEATHER ROUNDUP
NATIONAL WEATHER SERVICE HASTINGS NE
600 AM CDT SUN AUG 31 2014

NOTE: "FAIR" INDICATES FEW OR NO CLOUDS BELOW 12,000 FEET WITH NO
SIGNIFICANT WEATHER AND/OR OBSTRUCTIONS TO VISIBILITY.

...SOUTH CENTRAL NEBRASKA...

CITY           SKY/WX    TMP DP  RH WIND       PRES   REMARKS
GRAND ISLAND   PTCLDY    72  59  63 S15       29.76F
HASTINGS       MOCLDY    74  56  53 S15G24    29.77F
KEARNEY        MOCLDY    70  57  64 S16G22    29.76F
ORD            PTCLDY    63  60  90 S3        29.71F
YORK           TSTM      64 N/A N/A SW3       29.81R
AURORA         MOCLDY    66  62  87 S10       29.77F
LEXINGTON      CLOUDY    71  60  67 SW6       29.75S
HOLDREGE       CLOUDY    68  59  73 S13       29.77F
HEBRON         MOCLDY    71  60  67 NW5       29.82R

...NEBRASKA PANHANDLE...

CITY           SKY/WX    TMP DP  RH WIND       PRES   REMARKS
CHADRON        PTCLDY    53  51  93 SW8       29.79R
ALLIANCE       PTCLDY    53  49  86 NW6       29.80R
SCOTTSBLUFF    MOCLDY    55  53  93 N8        29.83R
SIDNEY         MOCLDY    62  49  62 S10       29.84F

...WESTERN AND NORTH CENTRAL NEBRASKA...

CITY           SKY/WX    TMP DP  RH WIND       PRES   REMARKS
VALENTINE      PTCLDY    57  55  93 SW6       29.72S
AINSWORTH      PTCLDY    63  56  79 SW5       29.73F
ONEILL         PTCLDY    67  62  85 S7        29.70F
BROKEN BOW     CLOUDY    63  58  83 SE6       29.73F
IMPERIAL       CLEAR     60  53  77 S7        29.79F
NORTH PLATTE   PTCLDY    61  56  83 CALM      29.76F
MCCOOK         MOCLDY    71  54  54 SW10      29.78R

...EASTERN NEBRASKA...

CITY           SKY/WX    TMP DP  RH WIND       PRES   REMARKS
NORFOLK        PTCLDY    65  62  90 SE6       29.75F
SO SIOUX CITY  PTCLDY    66  64  93 SE5       29.77S
TEKAMAH        CLEAR     65  63  93 SE5       29.77F
COLUMBUS       PTCLDY    68  61  77 S6        29.78F
ALBION         PTCLDY    64  61  88 SE6       29.74F
OMAHA EPPLEY   CLEAR     71  65  81 S17       29.80F
OFFUTT AFB     CLEAR     69  69  99 SE10      29.81S
MILLARD        CLEAR     69  65  88 SE3       29.81S
LINCOLN        CLEAR     68  62  81 S10       29.79F
NEBRASKA CITY  CLEAR     66  66 100 S7        29.83F
BEATRICE       PTCLDY    68  63  84 S9        29.82S
FALLS CITY     CLEAR     66  64  93 SE7       29.84R

...NORTHERN KANSAS...

CITY           SKY/WX    TMP DP  RH WIND       PRES   REMARKS
GOODLAND       CLEAR     63  58  83 S14       29.83F
HILL CITY      CLOUDY    73  60  63 S8        29.78F
NORTON         SUNNY     68  55  64 S6        29.75F
PHILLIPSBURG   RAIN      68  61  77 E9        29.77F
SMITH CENTER   MOCLDY    72  61  68 S13G20    29.84F
BELOIT         PTCLDY    72  63  73 CALM      29.84R
HAYS           MOCLDY    66  61  82 SE7       29.85F
RUSSELL        NOT AVBL
CONCORDIA      PTCLDY    71  64  78 S15       29.81S
SALINA         PTCLDY    72  64  76 S9        29.83S
TOPEKA         CLEAR     72  67  84 S3        29.87R



USA.gov is the U.S. government's official web portal to all federal, state and local government web resources and services.